This is the latest recevied weather packets stored in our database for station/object EA3GKP-10. If no packets are shown the sender has not sent any weather packets the latest 10 day(s).
| Time | Temp. | Humidity | Pressure | Rain* | Wind** | Luminosity | Snow |
|---|---|---|---|---|---|---|---|
| 1777351873 | 16.11° C | - | - | 0 mm | 0.45 m/s, 323° | - | - |
| 1777351571 | 16.11° C | - | - | 0 mm | 2.24 m/s, 35° | - | - |
| 1777350964 | 16.11° C | - | - | 0 mm | 1.34 m/s, 27° | - | - |
| 1777350357 | 16.11° C | - | - | 0 mm | 0.89 m/s, 25° | - | - |
| 1777350054 | 16.67° C | - | - | 0 mm | 1.34 m/s, 322° | - | - |
| 1777349446 | 16.67° C | - | - | 0 mm | 1.34 m/s, 45° | - | - |
| 1777349143 | 16.67° C | - | - | 0 mm | 0.89 m/s, 58° | - | - |
| 1777348839 | 16.11° C | - | - | 0 mm | 1.34 m/s, 34° | - | - |
| 1777348234 | 16.11° C | - | - | 0 mm | 0.89 m/s, 300° | - | - |
| 1777347931 | 16.67° C | - | - | 0 mm | 2.24 m/s, 17° | - | - |
| 1777347627 | 16.11° C | - | - | 0 mm | 0.89 m/s, 340° | - | - |
| 1777347325 | 16.67° C | - | - | 0 mm | 0.89 m/s, 27° | - | - |
| 1777347022 | 16.67° C | - | - | 0 mm | 0.89 m/s, 44° | - | - |
| 1777346416 | 16.67° C | - | - | 0 mm | 0.45 m/s, 290° | - | - |
| 1777345808 | 16.67° C | - | - | 0 mm | 0.89 m/s, 359° | - | - |
| 1777345202 | 16.11° C | - | - | 0 mm | 0.45 m/s, 28° | - | - |
| 1777344900 | 16.67° C | - | - | 0 mm | 1.79 m/s, 353° | - | - |
| 1777344292 | 16.67° C | - | - | 0 mm | 1.34 m/s, 4° | - | - |
| 1777343685 | 16.67° C | - | - | 0 mm | 0 m/s | - | - |
| 1777343382 | 16.67° C | - | - | 0 mm | 0 m/s | - | - |
| 1777342776 | 16.67° C | - | - | 0 mm | 0 m/s | - | - |
| 1777342473 | 16.67° C | - | - | 0 mm | 0 m/s | - | - |
| 1777342170 | 16.67° C | - | - | 0 mm | 0 m/s | - | - |
| 1777341867 | 16.67° C | - | - | 0 mm | 0 m/s | - | - |
| 1777341817 | 16.67° C | - | - | 0 mm | 0 m/s | - | - |
* Rain latest hour (hover to see other rain measurements)
** Current wind speed in m/s (hover to see current wind gust speed)